ENT3EY LEPA-EPWA

Flight info

Callsign ENT3EY
Flight time N/A
Altitude 34000
Route ISTER DCT NIVDA DCT OMEDA/N0444F360 DCT RAPUR DCT TORTU DCT ERTEV DCT MALUG/N0441F350 DCT INGID DCT GAMLI DCT STO DCT LEDVA DCT NETIR DCT USALO DCT KOTEK DCT LOGDA
Aircraft B738/M-SDGHIJ1RWXY/EB1

Departure

Time N/A
Airport Palma de Mallorca Airport (LEPA)

Arrival

Time 2026-05-06 16:04
Airport Warsaw Chopin Airport (EPWA)
Time Latitude Longitude Altitude Speed Heading
2026-05-06 15:22 48.71177 16.74582 33755 ft 520 kts 58°
2026-05-06 15:22 48.73065 16.79247 33748 ft 519 kts 56°
2026-05-06 15:23 48.77380 16.87985 33762 ft 517 kts 49°
2026-05-06 15:23 48.81910 16.96443 33777 ft 516 kts 49°
2026-05-06 15:24 48.86411 17.04945 33784 ft 517 kts 50°
2026-05-06 15:24 48.90855 17.13519 33793 ft 517 kts 50°
2026-05-06 15:25 48.95279 17.22140 33797 ft 517 kts 50°
2026-05-06 15:25 48.99694 17.30773 33802 ft 517 kts 50°
2026-05-06 15:26 49.04108 17.39424 33804 ft 517 kts 50°
2026-05-06 15:26 49.08514 17.48079 33816 ft 517 kts 50°
2026-05-06 15:27 49.12917 17.56758 33807 ft 517 kts 50°
2026-05-06 15:27 49.17318 17.65462 33803 ft 518 kts 50°
2026-05-06 15:28 49.21681 17.74120 33805 ft 518 kts 50°
2026-05-06 15:28 49.26074 17.82864 33830 ft 518 kts 50°
2026-05-06 15:29 49.30460 17.91623 33816 ft 518 kts 51°
2026-05-06 15:29 49.34837 18.00394 33807 ft 518 kts 51°
2026-05-06 15:30 49.39205 18.09175 33811 ft 517 kts 51°
2026-05-06 15:30 49.43557 18.17955 33818 ft 515 kts 51°
2026-05-06 15:31 49.47880 18.26704 33823 ft 513 kts 51°
2026-05-06 15:31 49.52188 18.35447 34186 ft 511 kts 51°
2026-05-06 15:32 49.56456 18.44143 34773 ft 505 kts 51°
2026-05-06 15:32 49.58564 18.48450 34812 ft 504 kts 51°
2026-05-06 15:32 49.62796 18.57115 34823 ft 508 kts 51°
2026-05-06 15:33 49.67017 18.65780 34831 ft 509 kts 51°
2026-05-06 15:33 49.71522 18.74198 34831 ft 507 kts 41°
2026-05-06 15:34 49.77031 18.80764 34841 ft 490 kts 28°
2026-05-06 15:34 49.82745 18.86178 34837 ft 477 kts 27°
2026-05-06 15:35 49.88401 18.91561 34832 ft 477 kts 28°
2026-05-06 15:35 49.94042 18.97011 34820 ft 478 kts 28°
2026-05-06 15:36 49.99666 19.02495 34830 ft 477 kts 28°
2026-05-06 15:36 50.02477 19.05243 34654 ft 479 kts 28°
2026-05-06 15:36 50.05298 19.08006 34299 ft 476 kts 28°
2026-05-06 15:37 50.08081 19.10738 33900 ft 471 kts 28°
2026-05-06 15:37 50.10843 19.13452 33459 ft 467 kts 28°
2026-05-06 15:37 50.13543 19.16108 33029 ft 463 kts 28°
2026-05-06 15:37 50.16290 19.18811 32625 ft 459 kts 29°
2026-05-06 15:38 50.18944 19.21427 32215 ft 455 kts 29°
2026-05-06 15:38 50.21607 19.24054 31823 ft 452 kts 29°
2026-05-06 15:38 50.24256 19.26671 31422 ft 448 kts 29°
2026-05-06 15:38 50.26882 19.29268 31030 ft 445 kts 30°
2026-05-06 15:39 50.29491 19.31852 30643 ft 443 kts 30°
2026-05-06 15:39 50.32082 19.34422 30260 ft 440 kts 30°
2026-05-06 15:39 50.34662 19.36984 29874 ft 438 kts 30°
2026-05-06 15:39 50.37228 19.39536 29429 ft 435 kts 30°
2026-05-06 15:40 50.39769 19.42067 29011 ft 432 kts 30°
2026-05-06 15:40 50.42293 19.44583 28615 ft 428 kts 30°
2026-05-06 15:40 50.44795 19.47082 28207 ft 425 kts 30°
2026-05-06 15:40 50.47283 19.49570 27800 ft 422 kts 30°
2026-05-06 15:41 50.49744 19.52033 27417 ft 419 kts 30°
2026-05-06 15:41 50.52195 19.54489 27035 ft 416 kts 30°
2026-05-06 15:41 50.54635 19.56937 26646 ft 415 kts 31°
2026-05-06 15:41 50.57063 19.59376 26268 ft 413 kts 31°
2026-05-06 15:42 50.59473 19.61799 25886 ft 411 kts 31°
2026-05-06 15:42 50.61879 19.64222 25516 ft 410 kts 31°
2026-05-06 15:42 50.64273 19.66637 25125 ft 410 kts 31°
2026-05-06 15:42 50.66675 19.69062 24756 ft 409 kts 31°
2026-05-06 15:43 50.69068 19.71480 24360 ft 407 kts 31°
2026-05-06 15:43 50.71449 19.73890 23966 ft 406 kts 31°
2026-05-06 15:43 50.73823 19.76296 23580 ft 404 kts 31°
2026-05-06 15:43 50.76183 19.78691 23168 ft 403 kts 31°
2026-05-06 15:44 50.78536 19.81081 22728 ft 401 kts 31°
2026-05-06 15:44 50.80870 19.83456 22332 ft 398 kts 31°
2026-05-06 15:44 50.83188 19.85817 21955 ft 395 kts 31°
2026-05-06 15:44 50.85490 19.88164 21567 ft 393 kts 31°
2026-05-06 15:45 50.87783 19.90505 21181 ft 390 kts 31°
2026-05-06 15:45 50.90058 19.92829 20811 ft 388 kts 31°
2026-05-06 15:45 50.92317 19.95141 20442 ft 386 kts 31°
2026-05-06 15:45 50.94566 19.97444 20073 ft 384 kts 31°
2026-05-06 15:46 50.96804 19.99739 19708 ft 382 kts 31°
2026-05-06 15:46 50.99032 20.02027 19343 ft 381 kts 31°
2026-05-06 15:46 51.01252 20.04308 18983 ft 379 kts 31°
2026-05-06 15:46 51.03463 20.06584 18601 ft 379 kts 31°
2026-05-06 15:47 51.05671 20.08858 18227 ft 378 kts 31°
2026-05-06 15:47 51.07876 20.11133 17818 ft 377 kts 31°
2026-05-06 15:47 51.10069 20.13397 17433 ft 375 kts 31°
2026-05-06 15:47 51.12249 20.15651 17055 ft 373 kts 31°
2026-05-06 15:48 51.14415 20.17894 16683 ft 370 kts 31°
2026-05-06 15:48 51.16568 20.20125 16324 ft 368 kts 31°
2026-05-06 15:48 51.18704 20.22341 15970 ft 365 kts 31°
2026-05-06 15:48 51.20825 20.24545 15617 ft 363 kts 31°
2026-05-06 15:49 51.22934 20.26737 15265 ft 360 kts 31°
2026-05-06 15:49 51.25028 20.28916 14935 ft 358 kts 31°
2026-05-06 15:49 51.27082 20.31056 14588 ft 356 kts 32°
2026-05-06 15:49 51.29179 20.33244 14235 ft 355 kts 32°
2026-05-06 15:50 51.31214 20.35369 13883 ft 353 kts 32°
2026-05-06 15:50 51.33264 20.37512 13540 ft 351 kts 32°
2026-05-06 15:50 51.35304 20.39648 13151 ft 349 kts 32°
2026-05-06 15:50 51.37329 20.41768 12787 ft 347 kts 32°
2026-05-06 15:51 51.39346 20.43884 12429 ft 345 kts 32°
2026-05-06 15:51 51.41345 20.45983 12085 ft 343 kts 32°
2026-05-06 15:51 51.43329 20.48068 11747 ft 340 kts 32°
2026-05-06 15:51 51.45300 20.50143 11416 ft 338 kts 31°
2026-05-06 15:52 51.47261 20.52209 11082 ft 336 kts 31°
2026-05-06 15:52 51.49205 20.54259 10747 ft 333 kts 31°
2026-05-06 15:52 51.51135 20.56295 10422 ft 331 kts 31°
2026-05-06 15:52 51.53051 20.58320 10096 ft 329 kts 31°
2026-05-06 15:53 51.54935 20.60313 9970 ft 320 kts 31°
2026-05-06 15:53 51.56769 20.62257 9820 ft 312 kts 31°
2026-05-06 15:53 51.58559 20.64155 9738 ft 302 kts 31°
2026-05-06 15:53 51.60329 20.66032 9289 ft 306 kts 31°
2026-05-06 15:54 51.62102 20.67912 8995 ft 304 kts 31°
2026-05-06 15:54 51.63863 20.69782 8693 ft 303 kts 31°
2026-05-06 15:54 51.65614 20.71644 8392 ft 301 kts 31°
2026-05-06 15:54 51.67333 20.73473 8108 ft 299 kts 31°
2026-05-06 15:55 51.69088 20.75344 7827 ft 298 kts 31°
2026-05-06 15:55 51.70790 20.77159 7531 ft 297 kts 32°
2026-05-06 15:55 51.72505 20.78991 7259 ft 295 kts 32°
2026-05-06 15:55 51.74207 20.80810 6989 ft 293 kts 32°
2026-05-06 15:56 51.75901 20.82621 6718 ft 291 kts 32°
2026-05-06 15:56 51.77576 20.84414 6573 ft 285 kts 32°
2026-05-06 15:56 51.79217 20.86173 6352 ft 282 kts 32°
2026-05-06 15:56 51.80842 20.87916 6094 ft 280 kts 32°
2026-05-06 15:57 51.82462 20.89655 5826 ft 279 kts 32°
2026-05-06 15:57 51.84077 20.91390 5555 ft 278 kts 32°
2026-05-06 15:57 51.85684 20.93118 5278 ft 277 kts 32°
2026-05-06 15:57 51.87282 20.94839 5069 ft 273 kts 32°
2026-05-06 15:58 51.88843 20.96521 4945 ft 266 kts 32°
2026-05-06 15:58 51.90363 20.98160 4825 ft 259 kts 32°
2026-05-06 15:58 51.91845 20.99759 4706 ft 252 kts 32°
2026-05-06 15:58 51.93284 21.01314 4589 ft 245 kts 32°
2026-05-06 15:59 51.94694 21.02837 4406 ft 242 kts 32°
2026-05-06 15:59 51.96093 21.04347 4173 ft 241 kts 33°
2026-05-06 15:59 51.97481 21.05850 4033 ft 238 kts 33°
2026-05-06 15:59 51.98867 21.07351 3968 ft 240 kts 33°
2026-05-06 16:00 52.00265 21.08833 3735 ft 246 kts 27°
2026-05-06 16:00 52.01904 21.09346 3357 ft 233 kts 346°
2026-05-06 16:00 52.03337 21.08432 3045 ft 214 kts 327°
2026-05-06 16:00 52.04590 21.07265 2757 ft 202 kts 326°
2026-05-06 16:01 52.05813 21.06155 2496 ft 202 kts 327°
2026-05-06 16:01 52.07048 21.05069 2251 ft 198 kts 327°
2026-05-06 16:01 52.08223 21.04040 1985 ft 185 kts 327°
2026-05-06 16:01 52.09310 21.03087 1773 ft 168 kts 326°
2026-05-06 16:02 52.10313 21.02203 1538 ft 160 kts 326°
2026-05-06 16:02 52.11291 21.01341 1340 ft 162 kts 326°
2026-05-06 16:02 52.12284 21.00475 1102 ft 160 kts 327°
2026-05-06 16:02 52.13240 20.99640 899 ft 154 kts 328°
2026-05-06 16:03 52.14177 20.98832 704 ft 152 kts 328°
2026-05-06 16:03 52.15108 20.98000 480 ft 151 kts 326°
2026-05-06 16:03 52.16007 20.97210 350 ft 142 kts 327°
2026-05-06 16:03 52.16789 20.96526 338 ft 97 kts 332°
2026-05-06 16:04 52.17324 20.96057 336 ft 76 kts 332°
2026-05-06 16:04 52.17721 20.95708 336 ft 41 kts 331°
2026-05-06 16:04 52.17874 20.95670 333 ft 15 kts 54°
2026-05-06 16:04 52.17926 20.95811 335 ft 14 kts 60°
2026-05-06 16:05 52.17973 20.95948 335 ft 14 kts 61°
2026-05-06 16:05 52.18007 20.96086 337 ft 13 kts 77°
2026-05-06 16:05 52.18012 20.96175 338 ft 5 kts 131°
2026-05-06 16:05 52.17984 20.96192 334 ft 3 kts 165°
2026-05-06 16:06 52.17974 20.96196 336 ft 0 kts 167°